Location: Newark
(25.4800°N, 85.7200°E)
Time: 06:50:08
(UTC+00:00)

Transit 2A Rocket - All Passes

Search period start: 24 August 2019 00:00
Search period end: 03 September 2019 00:00
Orbit: 590 x 913 km, 66.7° (Epoch: 22 August)

Date Brightness Start Highest point End Pass type
(mag) Time Alt. Az. Time Alt. Az. Time Alt. Az.
24 Aug - 11:27:20 10° SSE 11:32:30 31° ESE 11:37:26 10° NE daylight
24 Aug - 13:09:58 10° WSW 13:14:59 28° WNW 13:19:45 10° N visible
24 Aug - 22:02:06 10° N 22:06:04 33° ENE 22:09:56 10° SE visible
24 Aug - 23:46:25 10° W 23:48:10 12° WSW 23:49:54 10° SW daylight
25 Aug - 10:46:34 10° SE 10:50:08 16° ESE 10:53:36 10° ENE daylight
25 Aug - 12:26:38 10° SW 12:32:24 51° WNW 12:37:49 10° N daylight
25 Aug - 21:20:37 10° NNE 21:23:24 16° ENE 21:26:08 10° E visible
25 Aug - 23:02:13 10° NW 23:05:52 27° WSW 23:09:29 10° SSW visible
26 Aug - 11:43:54 10° SSW 11:49:53 87° ESE 11:55:30 10° NNE daylight
26 Aug - 22:19:13 10° NNW 22:23:31 62° WSW 22:27:43 10° SSE visible
27 Aug - 11:01:45 10° S 11:07:27 46° ESE 11:12:48 10° NE daylight
27 Aug - 12:46:03 10° WSW 12:50:06 19° WNW 12:53:59 10° NNW daylight
27 Aug - 21:36:45 10° NNW 21:41:02 57° ENE 21:45:13 10° SE visible
28 Aug - 10:20:17 10° SSE 10:25:02 25° ESE 10:29:34 10° NE daylight
28 Aug - 12:02:08 10° SW 12:07:27 34° WNW 12:12:27 10° N daylight
28 Aug - 20:54:48 10° N 20:58:28 26° ENE 21:02:03 10° ESE night (unlit)
28 Aug - 22:38:01 10° WNW 22:40:42 16° WSW 22:43:21 10° SW night (unlit)
29 Aug - 09:40:13 10° SE 09:42:42 13° ESE 09:45:08 10° E daylight
29 Aug - 11:19:00 10° SSW 11:24:53 63° WNW 11:30:23 10° NNE daylight
29 Aug - 20:13:47 10° NNE 20:15:45 13° ENE 20:17:43 10° E night (unlit)
29 Aug - 21:54:25 10° NW 21:58:22 35° WSW 22:02:16 10° S night (unlit)
30 Aug - 10:36:28 10° SSW 10:42:24 71° ESE 10:47:56 10° NNE daylight
30 Aug - 12:22:52 10° W 12:25:15 13° WNW 12:27:35 10° NNW daylight
30 Aug - 21:11:38 10° NNW 21:15:58 83° WSW 21:20:14 10° SSE night (unlit)
31 Aug - 09:54:32 10° S 09:59:57 37° ESE 10:05:05 10° NE daylight
31 Aug - 11:37:58 10° WSW 11:42:31 23° WNW 11:46:51 10° N daylight
31 Aug - 20:29:21 10° N 20:33:28 42° ENE 20:37:31 10° SE night (unlit)
01 Sep - 09:13:24 10° SSE 09:17:34 20° ESE 09:21:35 10° ENE daylight
01 Sep - 10:54:21 10° SW 10:59:54 42° WNW 11:05:06 10° N daylight
01 Sep - 19:47:36 10° NNE 19:50:51 20° ENE 19:54:03 10° ESE night (unlit)
01 Sep - 21:29:56 10° WNW 21:33:11 21° WSW 21:36:27 10° SSW night (unlit)
02 Sep - 10:11:26 10° SSW 10:17:22 78° WNW 10:22:54 10° NNE daylight
02 Sep - 20:46:42 10° NW 20:50:51 47° WSW 20:54:58 10° S night (unlit)
